Back to catalog

GLOBALSTAR M076

AliveCommunicationsLEO
NORAD 37190·PAYLOAD·🇺🇸 United States

Launched Oct 19, 2010 from Baikonur Cosmodrome

Loading…

Next Passes (next 24 hours)

TLE

FreshSource: Space-Track

Epoch: Sep 14, 2026, 07:03 UTC

1 37190U 10054C   26257.29397266 -.00000090  00000-0  77238-4 0  9997
2 37190  52.0017 196.8794 0000219  64.8474  99.2605 12.62263602734124

Track GLOBALSTAR M076 in real time with AllMySat

Download on the App Store